Regional Weather Roundup
Issued by NWS Cleveland, OH

Home | Current Version | Previous Version | Text Only | Print | Product List | Glossary On
Versions: 1 2 3 4 5 6 7 8 9 10 11 12 13 14 15 16 17 18 19 20 21 22 23 24 25 26 27 28 29 30 31 32 33 34 35 36 37 38 39 40 41 42 43 44 45 46 47 48 49 50
000
ASUS41 KCLE 022212
RWRCLE
OHIO REGIONAL WEATHER ROUNDUP
NATIONAL WEATHER SERVICE WILMINGTON, OH
500 PM EST FRI DEC 02 2016

NOTE: "FAIR" INDICATES FEW OR NO CLOUDS BELOW 12,000 FEET WITH NO
SIGNIFICANT WEATHER AND/OR OBSTRUCTIONS TO VISIBILITY.

OHZ001>008-015>018-024>027-034-035-043-044-022300-
   NORTHWEST OHIO

CITY           SKY/WX    TMP DP  RH WIND       PRES   REMARKS
DEFIANCE       CLOUDY    39  32  76 W5        30.18R
FINDLAY        CLOUDY    40  31  70 W16       30.15R
TOLEDO EXPRESS CLOUDY    38  29  70 W16G23    30.16R
TOLEDO EXEC    CLOUDY    39  31  72 NW16      30.16R
LIMA           CLOUDY    38  32  79 W15       30.17R
$$

OHZ009>014-019>023-028>033-038-089-022300-
   NORTHEAST OHIO

CITY           SKY/WX    TMP DP  RH WIND       PRES   REMARKS
CLE-HOPKINS    CLOUDY    40  33  76 W10       30.13R
CLE-LAKEFRONT  CLOUDY    41  32  70 W23G30    30.09R
CUY CO. ARPT   LGT RAIN  39  36  87 NW13G23   30.09
LORAIN-ELYRIA  CLOUDY    37  31  78 W9        30.13R
ASHTABULA      CLOUDY    38  32  79 W10       30.06R
AKRON-CANTON   CLOUDY    38  30  73 W12       30.10R
WOOSTER        CLOUDY    37  30  75 W14       30.12R
MANSFIELD      CLOUDY    37  31  78 W14G20    30.12R
YOUNGSTOWN     DRIZZLE   36  33  89 W12       30.06S
$$

OHZ042-051>053-060>062-070>072-077>081-022300-
  SOUTHWEST OHIO

CITY           SKY/WX    TMP DP  RH WIND       PRES   REMARKS
CINC-COVINGTON CLOUDY    39  30  70 W9        30.24R
CINC-LUNKEN    CLOUDY    41  31  67 W9        30.26R
HAMILTON       CLOUDY    41  29  62 W8        30.26R
DAYTON         CLOUDY    38  29  70 NW9       30.22R
WRIGHT-PAT AFB CLOUDY    39  29  67 W10       30.22R
DAYTON GENERAL CLOUDY    39  29  67 W8        30.22R
WILMINGTON     CLOUDY    38  31  76 W10       30.21R
$$

OHZ036-037-039>041-045>050-054>059-063>069-073>076-082>088-022300-
  CENTRAL AND SOUTHEAST OHIO

CITY           SKY/WX    TMP DP  RH WIND       PRES   REMARKS
COLUMBUS       CLOUDY    38  32  79 W13       30.18S
OSU AIRPORT    CLOUDY    38  31  76 W13       30.17S
BOLTON FIELD   CLOUDY    37  32  81 W6        30.20R
RICKENBACK AFB CLOUDY    38  32  79 W8        30.20R
NEWARK         CLOUDY    38  31  76 W8        30.17R
MARION         CLOUDY    38  30  73 W10       30.16R
LANCASTER      CLOUDY    39  31  72 W8        30.20R
ZANESVILLE     CLOUDY    37  32  82 SW8       30.17R
NEW PHILLY     CLOUDY    38  31  76 SW7       30.15R
$$



USA.gov is the U.S. government's official web portal to all federal, state and local government web resources and services.